| time (UTC) | temp C | wind direction | speed KPH | gust KPH | rain 1hr cm | rain 24hr cm | rain mn cm | humidity % | barometer mb |
| 20260505022830 | 18 | 213 | 1.6 | 1.6 | 0.00 | 0.00 | 0.00 | 42 | 1007.0 |
| 20260505022326 | 18 | 218 | 1.6 | 1.6 | 0.00 | 0.00 | 0.00 | 41 | 1006.9 |
| 20260505021824 | 19 | 215 | 0.0 | 1.6 | 0.00 | 0.00 | 0.00 | 40 | 1006.9 |
| 20260505021320 | 19 | 205 | 1.6 | 1.6 | 0.00 | 0.00 | 0.00 | 39 | 1007.0 |
| 20260505020816 | 20 | 218 | 1.6 | 1.6 | 0.00 | 0.00 | 0.00 | 39 | 1006.8 |
| 20260505020312 | 20 | 198 | 3.2 | 3.2 | 0.00 | 0.00 | 0.00 | 38 | 1006.7 |
| 20260505015809 | 20 | 197 | 3.2 | 3.2 | 0.00 | 0.00 | 0.00 | 37 | 1006.8 |
| 20260505015306 | 20 | 196 | 1.6 | 3.2 | 0.00 | 0.00 | 0.00 | 38 | 1006.5 |
| 20260505014803 | 20 | 193 | 4.8 | 4.8 | 0.00 | 0.00 | 0.00 | 37 | 1006.7 |
| 20260505014300 | 20 | 222 | 0.0 | 1.6 | 0.00 | 0.00 | 0.00 | 38 | 1006.7 |
| 20260505013757 | 20 | 198 | 3.2 | 3.2 | 0.00 | 0.00 | 0.00 | 38 | 1006.8 |
| 20260505013254 | 20 | 185 | 4.8 | 4.8 | 0.00 | 0.00 | 0.00 | 37 | 1007.1 |
| 20260505012752 | 20 | 206 | 1.6 | 1.6 | 0.00 | 0.00 | 0.00 | 36 | 1006.9 |
| 20260505012250 | 20 | 222 | 0.0 | 1.6 | 0.00 | 0.00 | 0.00 | 36 | 1006.9 |
| 20260505011745 | 20 | 213 | 1.6 | 3.2 | 0.00 | 0.00 | 0.00 | 38 | 1007.0 |
| 20260505011242 | 20 | 202 | 1.6 | 1.6 | 0.00 | 0.00 | 0.00 | 39 | 1007.1 |
| 20260505010738 | 20 | 185 | 4.8 | 4.8 | 0.00 | 0.00 | 0.00 | 39 | 1007.0 |
| 20260505010234 | 20 | 179 | 3.2 | 3.2 | 0.00 | 0.00 | 0.00 | 38 | 1007.1 |
| 20260505005731 | 20 | 203 | 1.6 | 1.6 | 0.00 | 0.00 | 0.00 | 38 | 1007.3 |
| 20260505005228 | 20 | 212 | 4.8 | 4.8 | 0.00 | 0.00 | 0.00 | 39 | 1007.3 |
| 20260505004725 | 20 | 217 | 6.4 | 8.0 | 0.00 | 0.00 | 0.00 | 39 | 1007.6 |
| 20260505004221 | 20 | 259 | 4.8 | 4.8 | 0.00 | 0.00 | 0.00 | 34 | 1007.6 |
| 20260505003719 | 20 | 233 | 3.2 | 4.8 | 0.00 | 0.00 | 0.00 | 35 | 1007.6 |
| 20260505003217 | 20 | 276 | 3.2 | 3.2 | 0.00 | 0.00 | 0.00 | 34 | 1007.6 |
| 20260505002712 | 20 | 275 | 4.8 | 4.8 | 0.00 | 0.00 | 0.00 | 35 | 1007.7 |
| 20260505002210 | 20 | 144 | 4.8 | 8.0 | 0.00 | 0.00 | 0.00 | 33 | 1007.5 |
| 20260505001708 | 21 | 17 | 4.8 | 4.8 | 0.00 | 0.00 | 0.00 | 36 | 1007.6 |
| 20260505001205 | 21 | 354 | 6.4 | 9.7 | 0.00 | 0.00 | 0.00 | 35 | 1007.8 |
| 20260505000702 | 21 | 307 | 8.0 | 9.7 | 0.00 | 0.00 | 0.00 | 35 | 1007.8 |
| 20260505000200 | 21 | 30 | 1.6 | 3.2 | 0.00 | 0.00 | 0.00 | 35 | 1007.7 |
| 20260504235656 | 21 | 191 | 8.0 | 9.7 | 0.00 | 0.00 | 0.00 | 35 | 1007.6 |
| 20260504235152 | 21 | 13 | 4.8 | 4.8 | 0.00 | 0.00 | 0.00 | 36 | 1007.7 |
| 20260504234650 | 21 | 39 | 6.4 | 8.0 | 0.00 | 0.00 | 0.00 | 36 | 1007.7 |
| 20260504234147 | 21 | 42 | 3.2 | 3.2 | 0.00 | 0.00 | 0.00 | 36 | 1007.7 |
| 20260504233642 | 21 | 280 | 8.0 | 9.7 | 0.00 | 0.00 | 0.00 | 36 | 1007.6 |
| 20260504233138 | 21 | 312 | 12.9 | 14.5 | 0.00 | 0.00 | 0.00 | 36 | 1007.6 |
| 20260504232637 | 21 | 352 | 11.3 | 16.1 | 0.00 | 0.00 | 0.00 | 36 | 1007.5 |
| 20260504232133 | 21 | 327 | 16.1 | 20.9 | 0.00 | 0.00 | 0.00 | 37 | 1007.5 |
| 20260504231630 | 20 | 339 | 9.7 | 12.9 | 0.00 | 0.00 | 0.00 | 39 | 1007.5 |
| 20260504231126 | 20 | 16 | 17.7 | 24.1 | 0.00 | 0.00 | 0.00 | 40 | 1007.5 |
| 20260504230622 | 21 | 9 | 14.5 | 17.7 | 0.00 | 0.00 | 0.00 | 38 | 1007.6 |
| 20260504230121 | 24 | 334 | 17.7 | 25.7 | 0.00 | 0.00 | 0.00 | 32 | 1007.6 |
| 20260504225619 | 23 | 223 | 8.0 | 9.7 | 0.00 | 0.00 | 0.00 | 32 | 1007.1 |
| 20260504225115 | 23 | 229 | 9.7 | 12.9 | 0.00 | 0.00 | 0.00 | 33 | 1007.2 |
| 20260504224612 | 24 | 215 | 3.2 | 3.2 | 0.00 | 0.00 | 0.00 | 32 | 1007.0 |
| 20260504224109 | 24 | 230 | 1.6 | 1.6 | 0.00 | 0.00 | 0.00 | 32 | 1007.2 |
| 20260504223606 | 23 | 285 | 6.4 | 9.7 | 0.00 | 0.00 | 0.00 | 32 | 1007.1 |
| 20260504223101 | 24 | 260 | 3.2 | 4.8 | 0.00 | 0.00 | 0.00 | 31 | 1007.0 |
| 20260504222559 | 24 | 312 | 3.2 | 4.8 | 0.00 | 0.00 | 0.00 | 31 | 1007.1 |
| 20260504222056 | 24 | 219 | 1.6 | 1.6 | 0.00 | 0.00 | 0.00 | 30 | 1007.0 |
| 20260504221553 | 23 | 268 | 3.2 | 3.2 | 0.00 | 0.00 | 0.00 | 31 | 1007.1 |
| 20260504221050 | 23 | 18 | 4.8 | 4.8 | 0.00 | 0.00 | 0.00 | 30 | 1007.2 |
| 20260504220546 | 23 | 249 | 0.0 | 0.0 | 0.00 | 0.00 | 0.00 | 30 | 1007.2 |
| 20260504220043 | 24 | 38 | 4.8 | 8.0 | 0.00 | 0.00 | 0.00 | 31 | 1007.2 |
| 20260504215539 | 23 | 256 | 1.6 | 1.6 | 0.00 | 0.00 | 0.00 | 31 | 1007.3 |
| 20260504215037 | 23 | 322 | 4.8 | 4.8 | 0.00 | 0.00 | 0.00 | 30 | 1007.6 |
| 20260504214533 | 24 | 333 | 3.2 | 4.8 | 0.00 | 0.00 | 0.00 | 30 | 1007.5 |
| 20260504214030 | 23 | 274 | 6.4 | 9.7 | 0.00 | 0.00 | 0.00 | 32 | 1007.5 |
| 20260504213526 | 23 | 230 | 0.0 | 1.6 | 0.00 | 0.00 | 0.00 | 32 | 1007.8 |
| 20260504213023 | 23 | 231 | 3.2 | 4.8 | 0.00 | 0.00 | 0.00 | 30 | 1007.8 |
| 20260504212519 | 24 | 231 | 0.0 | 1.6 | 0.00 | 0.00 | 0.00 | 30 | 1007.9 |
| 20260504212017 | 23 | 212 | 3.2 | 3.2 | 0.00 | 0.00 | 0.00 | 30 | 1008.1 |
| 20260504211513 | 23 | 268 | 6.4 | 8.0 | 0.00 | 0.00 | 0.00 | 29 | 1008.3 |
| 20260504211011 | 23 | 301 | 8.0 | 9.7 | 0.00 | 0.00 | 0.00 | 33 | 1008.1 |
| 20260504210508 | 23 | 295 | 4.8 | 4.8 | 0.00 | 0.00 | 0.00 | 33 | 1008.0 |
| 20260504210004 | 24 | 251 | 4.8 | 4.8 | 0.00 | 0.00 | 0.00 | 33 | 1008.3 |
| 20260504205502 | 23 | 327 | 6.4 | 8.0 | 0.00 | 0.00 | 0.00 | 32 | 1008.3 |
| 20260504205000 | 23 | 241 | 4.8 | 4.8 | 0.00 | 0.00 | 0.00 | 33 | 1008.4 |
| 20260504204458 | 23 | 269 | 8.0 | 11.3 | 0.00 | 0.00 | 0.00 | 30 | 1008.5 |
| 20260504203957 | 23 | 273 | 1.6 | 3.2 | 0.00 | 0.00 | 0.00 | 35 | 1008.3 |
| 20260504203454 | 22 | 214 | 1.6 | 1.6 | 0.00 | 0.00 | 0.00 | 36 | 1008.5 |
| 20260504202950 | 22 | 231 | 3.2 | 3.2 | 0.00 | 0.00 | 0.00 | 36 | 1008.5 |
| 20260504202446 | 23 | 249 | 6.4 | 8.0 | 0.00 | 0.00 | 0.00 | 34 | 1008.6 |
| 20260504201943 | 23 | 44 | 3.2 | 3.2 | 0.00 | 0.00 | 0.00 | 34 | 1008.7 |
| 20260504201441 | 23 | 313 | 4.8 | 4.8 | 0.00 | 0.00 | 0.00 | 33 | 1008.6 |
| 20260504200938 | 23 | 260 | 3.2 | 3.2 | 0.00 | 0.00 | 0.00 | 35 | 1008.7 |
| 20260504200435 | 22 | 284 | 1.6 | 3.2 | 0.00 | 0.00 | 0.00 | 35 | 1008.8 |
| 20260504195931 | 22 | 222 | 4.8 | 4.8 | 0.00 | 0.00 | 0.00 | 36 | 1008.9 |
| 20260504195427 | 22 | 230 | 4.8 | 4.8 | 0.00 | 0.00 | 0.00 | 36 | 1008.9 |
| 20260504194924 | 22 | 334 | 4.8 | 8.0 | 0.00 | 0.00 | 0.00 | 34 | 1008.9 |
| 20260504194420 | 22 | 290 | 3.2 | 3.2 | 0.00 | 0.00 | 0.00 | 35 | 1008.8 |
| 20260504193916 | 22 | 228 | 3.2 | 3.2 | 0.00 | 0.00 | 0.00 | 35 | 1009.1 |
| 20260504193414 | 22 | 281 | 6.4 | 8.0 | 0.00 | 0.00 | 0.00 | 36 | 1009.2 |
| 20260504192912 | 22 | 56 | 6.4 | 8.0 | 0.00 | 0.00 | 0.00 | 35 | 1009.3 |
| 20260504192409 | 22 | 50 | 4.8 | 8.0 | 0.00 | 0.00 | 0.00 | 36 | 1009.4 |
| 20260504191908 | 22 | 261 | 3.2 | 3.2 | 0.00 | 0.00 | 0.00 | 37 | 1009.4 |
| 20260504191405 | 22 | 284 | 1.6 | 3.2 | 0.00 | 0.00 | 0.00 | 36 | 1009.4 |
| 20260504190900 | 22 | 345 | 4.8 | 4.8 | 0.00 | 0.00 | 0.00 | 37 | 1009.3 |
| 20260504190356 | 21 | 205 | 1.6 | 1.6 | 0.00 | 0.00 | 0.00 | 37 | 1009.5 |
| 20260504185853 | 21 | 223 | 3.2 | 3.2 | 0.00 | 0.00 | 0.00 | 38 | 1009.7 |
| 20260504185350 | 21 | 297 | 4.8 | 8.0 | 0.00 | 0.00 | 0.00 | 36 | 1010.0 |
| 20260504184846 | 21 | 329 | 1.6 | 1.6 | 0.00 | 0.00 | 0.00 | 37 | 1009.9 |
| 20260504184342 | 21 | 209 | 4.8 | 4.8 | 0.00 | 0.00 | 0.00 | 37 | 1010.0 |
| 20260504183838 | 21 | 231 | 3.2 | 3.2 | 0.00 | 0.00 | 0.00 | 37 | 1009.9 |
| 20260504183336 | 22 | 320 | 8.0 | 9.7 | 0.00 | 0.00 | 0.00 | 36 | 1010.1 |
| 20260504182833 | 21 | 217 | 1.6 | 3.2 | 0.00 | 0.00 | 0.00 | 38 | 1010.3 |
| 20260504182331 | 21 | 279 | 4.8 | 4.8 | 0.00 | 0.00 | 0.00 | 39 | 1010.3 |
| 20260504181827 | 21 | 317 | 6.4 | 9.7 | 0.00 | 0.00 | 0.00 | 38 | 1010.3 |
| 20260504181325 | 21 | 254 | 0.0 | 1.6 | 0.00 | 0.00 | 0.00 | 38 | 1010.4 |
| 20260504180824 | 21 | 342 | 4.8 | 4.8 | 0.00 | 0.00 | 0.00 | 39 | 1010.4 |
| 20260504180322 | 20 | 347 | 6.4 | 8.0 | 0.00 | 0.00 | 0.00 | 41 | 1010.4 |
| 20260504175820 | 20 | 89 | 3.2 | 4.8 | 0.00 | 0.00 | 0.00 | 40 | 1010.5 |
| 20260504175316 | 20 | 305 | 1.6 | 3.2 | 0.00 | 0.00 | 0.00 | 40 | 1010.8 |
| 20260504174815 | 19 | 55 | 4.8 | 4.8 | 0.00 | 0.00 | 0.00 | 41 | 1010.9 |
| 20260504174312 | 18 | 286 | 4.8 | 4.8 | 0.00 | 0.00 | 0.00 | 41 | 1010.8 |
| 20260504173808 | 18 | 226 | 1.6 | 1.6 | 0.00 | 0.00 | 0.00 | 41 | 1010.9 |
| 20260504173305 | 18 | 314 | 3.2 | 4.8 | 0.00 | 0.00 | 0.00 | 45 | 1010.9 |
| 20260504172802 | 18 | 195 | 1.6 | 1.6 | 0.00 | 0.00 | 0.00 | 45 | 1010.9 |
| 20260504172259 | 17 | 210 | 1.6 | 1.6 | 0.00 | 0.00 | 0.00 | 47 | 1010.9 |
| 20260504171754 | 17 | 301 | 4.8 | 4.8 | 0.00 | 0.00 | 0.00 | 47 | 1010.8 |
| 20260504171252 | 17 | 168 | 3.2 | 3.2 | 0.00 | 0.00 | 0.00 | 47 | 1010.9 |
| 20260504170749 | 17 | 163 | 3.2 | 3.2 | 0.00 | 0.00 | 0.00 | 46 | 1010.9 |
| 20260504170246 | 17 | 214 | 1.6 | 1.6 | 0.00 | 0.00 | 0.00 | 46 | 1011.1 |
| 20260504160204 | 14 | 217 | 1.6 | 3.2 | 0.00 | 0.00 | 0.00 | 50 | 1011.2 |
| 20260504151132 | 12 | 325 | 4.8 | 4.8 | 0.00 | 0.00 | 0.00 | 58 | 1011.2 |
| 20260504150630 | 12 | 273 | 4.8 | 4.8 | 0.00 | 0.00 | 0.00 | 59 | 1011.2 |
| 20260504150126 | 12 | 214 | 0.0 | 0.0 | 0.00 | 0.00 | 0.00 | 56 | 1011.3 |
| 20260504141055 | 8 | 218 | 4.8 | 4.8 | 0.00 | 0.00 | 0.00 | 67 | 1011.6 |
| 20260504140551 | 8 | 222 | 1.6 | 1.6 | 0.00 | 0.00 | 0.00 | 69 | 1011.7 |
| 20260504130516 | 8 | 287 | 3.2 | 3.2 | 0.00 | 0.00 | 0.00 | 62 | 1011.2 |
| 20260504110403 | 7 | 193 | 4.8 | 4.8 | 0.00 | 0.00 | 0.00 | 72 | 1011.1 |
| 20260504100320 | 8 | 37 | 8.0 | 9.7 | 0.00 | 0.00 | 0.00 | 64 | 1010.8 |
| 20260504081714 | 12 | 54 | 9.7 | 12.9 | 0.00 | 0.00 | 0.00 | 41 | 1010.9 |
| 20260504081210 | 12 | 40 | 8.0 | 11.3 | 0.00 | 0.00 | 0.00 | 41 | 1010.9 |
| 20260504080707 | 13 | 75 | 6.4 | 8.0 | 0.00 | 0.00 | 0.00 | 40 | 1010.9 |
| 20260504080203 | 12 | 73 | 8.0 | 11.3 | 0.00 | 0.00 | 0.00 | 39 | 1010.9 |
| 20260504070131 | 13 | 191 | 3.2 | 3.2 | 0.00 | 0.00 | 0.00 | 42 | 1011.2 |
| 20260504050520 | 12 | 233 | 0.0 | 0.0 | 0.00 | 0.00 | 0.00 | 51 | 1011.7 |
| 20260504050016 | 12 | 161 | 3.2 | 3.2 | 0.00 | 0.00 | 0.00 | 50 | 1011.6 |
| 20260504045513 | 12 | 191 | 1.6 | 1.6 | 0.00 | 0.00 | 0.00 | 51 | 1011.8 |
| 20260504045009 | 13 | 213 | 0.0 | 1.6 | 0.00 | 0.00 | 0.00 | 50 | 1011.8 |
| 20260504044506 | 13 | 238 | 1.6 | 1.6 | 0.00 | 0.00 | 0.00 | 50 | 1011.9 |
| 20260504044003 | 13 | 226 | 0.0 | 0.0 | 0.00 | 0.00 | 0.00 | 50 | 1011.9 |
| 20260504043500 | 13 | 229 | 0.0 | 0.0 | 0.00 | 0.00 | 0.00 | 49 | 1011.9 |
| 20260504042958 | 13 | 228 | 3.2 | 3.2 | 0.00 | 0.00 | 0.00 | 48 | 1011.7 |
| 20260504042454 | 15 | 203 | 3.2 | 3.2 | 0.00 | 0.00 | 0.00 | 45 | 1011.8 |
| 20260504041951 | 15 | 236 | 1.6 | 1.6 | 0.00 | 0.00 | 0.00 | 41 | 1011.8 |
| 20260504041447 | 16 | 227 | 0.0 | 1.6 | 0.00 | 0.00 | 0.00 | 33 | 1011.9 |
| 20260504040943 | 16 | 171 | 4.8 | 4.8 | 0.00 | 0.00 | 0.00 | 34 | 1011.8 |
| 20260504040441 | 16 | 109 | 4.8 | 4.8 | 0.00 | 0.00 | 0.00 | 33 | 1011.7 |
| 20260504035936 | 16 | 104 | 4.8 | 8.0 | 0.00 | 0.00 | 0.00 | 32 | 1011.8 |
| 20260504035435 | 17 | 204 | 1.6 | 1.6 | 0.00 | 0.00 | 0.00 | 32 | 1011.9 |
| 20260504034931 | 17 | 160 | 1.6 | 3.2 | 0.00 | 0.00 | 0.00 | 32 | 1011.8 |
| 20260504034428 | 17 | 92 | 6.4 | 8.0 | 0.00 | 0.00 | 0.00 | 31 | 1011.6 |
| 20260504033925 | 17 | 85 | 1.6 | 1.6 | 0.00 | 0.00 | 0.00 | 31 | 1011.7 |
| 20260504033423 | 17 | 131 | 6.4 | 8.0 | 0.00 | 0.00 | 0.00 | 30 | 1011.8 |
| 20260504032920 | 16 | 178 | 1.6 | 1.6 | 0.00 | 0.00 | 0.00 | 31 | 1011.7 |
| 20260504032417 | 16 | 189 | 1.6 | 3.2 | 0.00 | 0.00 | 0.00 | 32 | 1011.7 |
| 20260504031913 | 16 | 216 | 0.0 | 0.0 | 0.00 | 0.00 | 0.00 | 33 | 1011.6 |
| 20260504031411 | 16 | 220 | 0.0 | 0.0 | 0.00 | 0.00 | 0.00 | 36 | 1011.3 |
| 20260504030907 | 17 | 207 | 1.6 | 1.6 | 0.00 | 0.00 | 0.00 | 33 | 1011.5 |
| 20260504030404 | 17 | 178 | 3.2 | 3.2 | 0.00 | 0.00 | 0.00 | 32 | 1011.3 |
| 20260504025900 | 17 | 199 | 0.0 | 0.0 | 0.00 | 0.00 | 0.00 | 31 | 1011.2 |
| 20260504025357 | 17 | 213 | 0.0 | 0.0 | 0.00 | 0.00 | 0.00 | 32 | 1011.5 |
| 20260504024854 | 18 | 213 | 0.0 | 0.0 | 0.00 | 0.00 | 0.00 | 31 | 1011.3 |
| 20260504024350 | 18 | 224 | 0.0 | 0.0 | 0.00 | 0.00 | 0.00 | 33 | 1011.5 |
| 20260504023848 | 18 | 217 | 0.0 | 0.0 | 0.00 | 0.00 | 0.00 | 33 | 1011.3 |
| 20260504023344 | 18 | 210 | 0.0 | 0.0 | 0.00 | 0.00 | 0.00 | 32 | 1011.2 |